Etusivu
METAR-TAF:

METAR-TAF

Lentoasemat :

Dodge Center Airport (Dodge Center Municipal)

Dodge Center, Minnesota, Yhdysvallat

Leveyspiiri: 44-01-05N, Pituuspiiri: 092-49-53W, korkeus merenpinnasta: 398 m

Tämänhetkinen sää

Tämä raportti tehtiin 25 minuuttia sitten, kello 22.19 UTC
Tuuli 15 kn lännestä/luoteesta
Lämpötila -11°C
Kosteus 56%
Ilmanpaine 1032 hPa
Näkyvyys: 16.1 km
Hajanaisia pilviä 2800 ft:n korkeudessa

METAR: KTOB 112219Z AUTO 30015KT 10SM SCT028 M11/M18 A3047 RMK AO2

Aika: 16:44 (22:44 UTC)


TAF: puuttuu

Säähavainnot ja -ennusteet yli 4000 lentoasemalta (METAR- ja TAF-raportit).

Käytössä olevat sääasemat on merkitty karttaan keltaisilla ja punaisilla pisteillä.

Aseta hiiri pisteen päälle nähdäksesi sääaseman nimen.

Klikkaa sitten nähdäksesi säähavainnot ja -ennusteet.

Kartan vaihtaminen: klikkaa mustalla rastilla varustettuja vihreitä pisteitä, niin voit zoomata sisään; viivalla varustettua vihreää pistettä, niin voit zoomata ulos tai vihreitä nuolia, niin pääset viereisille kartoille.


METAR-TAF: